Flag for U.S.A. Weather past 2 weeks in Palo Alto, California, U.S.A.

Now
63 °F

Overcast.


Feels Like: 63 °F
Forecast: 59 / 69 °F
Wind: No wind

Location: Moffett Field

Current Time: Oct 20, 2014 at 3:38:17 AM

Latest Report: Oct 20, 2014 at 2:56 AM


Visibility: 10 mi

Pressure: 29.94 "Hg

Humidity: 87%

Dew point: 59 °F

Location of Palo AltoLocation

Historic Weather in Palo Alto — Graph

°F

Palo Alto temperature yesterday

Maximum temperature yesterday: 74 °F (at 2:56 PM)
Minimum temperature yesterday: 57 °F (at 5:56 AM)
Average temperature yesterday: 65 °F

Past Weeks' High & Low Weather Summary

 TemperatureHumidityPressure
High89 °F (Oct 12, 3:56 PM)100% (Oct 7, 2:56 AM)30.09 "Hg (Oct 7, 2:56 AM)
Low53 °F (Oct 17, 2:56 AM)11% (Oct 12, 4:56 PM)29.83 "Hg (Oct 14, 6:03 PM)
Average66 °F70%29.95 "Hg
* Reported Oct 5 1:56 AM — Oct 20 1:56 AM, Palo Alto, Weather by CustomWeather, © 2014

Note: Actual official high and low records may vary slightly from our data, if they occured in-between our weather recording intervals... More about our weather records

Advertising

Palo Alto weather history for previous 24 hours

 ConditionsComfort  
Time TempWeatherWind HumidityBarometerVisibility
1:56 AM
Oct 20
62 °FOvercast.No wind86%29.94 "Hg10 mi
12:56 AM63 °FOvercast.No wind87%29.93 "Hg10 mi
11:56 PM
Oct 19
60 °FClear.3 mph96%29.93 "Hg10 mi
10:56 PM62 °FPassing clouds.No wind90%29.92 "Hg10 mi
9:56 PM63 °FClear.No wind90%29.92 "Hg10 mi
7:56 PM65 °FClear.8 mph87%29.90 "Hg10 mi
6:56 PM66 °FSunny.12 mph84%29.88 "Hg10 mi
5:56 PM68 °FSunny.15 mph82%29.87 "Hg10 mi
4:56 PM69 °FSunny.16 mph84%29.86 "Hg10 mi
3:56 PM71 °FSunny.16 mph76%29.87 "Hg10 mi
2:56 PM74 °FSunny.15 mph64%29.87 "Hg10 mi
1:56 PM73 °FSunny.9 mph59%29.89 "Hg10 mi
12:56 PM73 °FSunny.6 mph59%29.90 "Hg10 mi
11:56 AM71 °FSunny.3 mph66%29.93 "Hg10 mi
10:56 AM68 °FSunny.3 mph78%29.94 "Hg10 mi
9:56 AM63 °FLow clouds.No wind100%29.95 "Hg10 mi
8:56 AM61 °FLow clouds.No wind93%29.94 "Hg10 mi
7:56 AM58 °FPassing clouds.No wind93%29.92 "Hg10 mi
6:56 AM58 °FClear.No wind93%29.91 "Hg10 mi
5:56 AM57 °FPassing clouds.3 mph96%29.90 "Hg10 mi
4:56 AM59 °FPassing clouds.No wind100%29.90 "Hg10 mi
3:56 AM61 °FPassing clouds.No wind97%29.89 "Hg10 mi
Weather by CustomWeather, © 2014

See weather overviewHow to use our weather pages